Time,TemperatureF,DewpointF,PressureIn,WindDirection,WindDirectionDegrees,WindSpeedMPH,WindSpeedGustMPH,Humidity,HourlyPrecipIn,Conditions,Clouds,dailyrainin,SolarRadiationWatts/m^2,SoftwareType,DateUTC
2013-04-04 00:00:00,35.0,20.4,30.32,NE,47,0.0,0.0,55,0.00,,,0.00,0,Wunderground v.1.15,2013-04-04 04:00:00,
2013-04-04 00:04:00,34.9,19.9,30.32,NE,47,0.0,0.0,54,0.00,,,0.00,0,Wunderground v.1.15,2013-04-04 04:04:00,
2013-04-04 00:10:00,34.8,20.3,30.32,NE,47,0.0,0.0,55,0.00,,,0.00,0,Wunderground v.1.15,2013-04-04 04:10:00,
2013-04-04 00:13:00,34.7,20.2,30.32,NE,47,0.0,0.0,55,0.00,,,0.00,0,Wunderground v.1.15,2013-04-04 04:13:00,
2013-04-04 00:19:00,34.6,20.1,30.32,NE,47,0.0,0.0,55,0.00,,,0.00,0,Wunderground v.1.15,2013-04-04 04:19:00,
2013-04-04 00:25:00,34.5,20.0,30.31,NE,47,0.0,0.0,55,0.00,,,0.00,0,Wunderground v.1.15,2013-04-04 04:25:00,
2013-04-04 00:30:00,34.5,20.8,30.31,NE,47,1.0,1.0,57,0.00,,,0.00,0,Wunderground v.1.15,2013-04-04 04:30:00,
2013-04-04 00:36:00,34.3,20.6,30.31,NE,47,0.0,1.0,57,0.00,,,0.00,0,Wunderground v.1.15,2013-04-04 04:36:00,
2013-04-04 00:42:00,34.2,20.9,30.31,NE,47,0.0,0.0,58,0.00,,,0.00,0,Wunderground v.1.15,2013-04-04 04:42:00,
2013-04-04 00:49:00,34.1,20.9,30.31,NE,47,0.0,0.0,58,0.00,,,0.00,0,Wunderground v.1.15,2013-04-04 04:49:00,
2013-04-04 00:54:00,34.2,20.5,30.31,NE,47,0.0,1.0,57,0.00,,,0.00,0,Wunderground v.1.15,2013-04-04 04:54:00,
2013-04-04 01:00:00,34.2,21.4,30.31,NE,47,0.0,0.0,59,0.00,,,0.00,0,Wunderground v.1.15,2013-04-04 05:00:00,
2013-04-04 01:08:00,33.9,20.7,30.31,NE,47,0.0,0.0,58,0.00,,,0.00,0,Wunderground v.1.15,2013-04-04 05:08:00,
2013-04-04 01:13:00,34.0,20.3,30.31,NE,47,1.0,1.0,57,0.00,,,0.00,0,Wunderground v.1.15,2013-04-04 05:13:00,
2013-04-04 01:19:00,34.0,19.9,30.31,NE,47,0.0,0.0,56,0.00,,,0.00,0,Wunderground v.1.15,2013-04-04 05:19:00,
2013-04-04 01:24:00,34.0,20.8,30.31,NE,47,0.0,0.0,58,0.00,,,0.00,0,Wunderground v.1.15,2013-04-04 05:24:00,
2013-04-04 01:30:00,34.0,21.2,30.31,NE,47,0.0,0.0,59,0.00,,,0.00,0,Wunderground v.1.15,2013-04-04 05:30:00,
2013-04-04 01:35:00,34.1,20.9,30.31,NE,47,1.0,1.0,58,0.00,,,0.00,0,Wunderground v.1.15,2013-04-04 05:35:00,
2013-04-04 01:40:00,34.2,20.9,30.31,NE,47,0.0,0.0,58,0.00,,,0.00,0,Wunderground v.1.15,2013-04-04 05:40:00,
2013-04-04 01:47:00,34.4,21.5,30.30,NE,47,0.0,1.0,59,0.00,,,0.00,0,Wunderground v.1.15,2013-04-04 05:47:00,
2013-04-04 01:52:00,34.6,21.7,30.30,NE,47,1.0,1.0,59,0.00,,,0.00,0,Wunderground v.1.15,2013-04-04 05:52:00,
2013-04-04 01:58:00,34.8,22.3,30.30,East,80,2.0,2.0,60,0.00,,,0.00,0,Wunderground v.1.15,2013-04-04 05:58:00,
2013-04-04 02:48:00,35.2,17.9,30.29,ESE,121,3.0,3.0,49,0.00,,,0.00,0,Wunderground v.1.15,2013-04-04 06:48:00,
2013-04-04 02:53:00,35.3,18.0,30.28,ESE,121,1.0,3.0,49,0.00,,,0.00,0,Wunderground v.1.15,2013-04-04 06:53:00,
2013-04-04 02:58:00,35.4,17.6,30.28,ENE,77,2.0,2.0,48,0.00,,,0.00,0,Wunderground v.1.15,2013-04-04 06:58:00,
2013-04-04 03:03:00,35.6,16.8,30.28,East,82,2.0,3.0,46,0.00,,,0.00,0,Wunderground v.1.15,2013-04-04 07:03:00,
2013-04-04 03:08:00,35.7,16.9,30.28,ENE,78,1.0,3.0,46,0.00,,,0.00,0,Wunderground v.1.15,2013-04-04 07:08:00,
2013-04-04 03:13:00,35.9,16.6,30.27,ENE,76,1.0,2.0,45,0.00,,,0.00,0,Wunderground v.1.15,2013-04-04 07:13:00,
2013-04-04 03:18:00,36.0,16.7,30.27,ENE,58,1.0,4.0,45,0.00,,,0.00,0,Wunderground v.1.15,2013-04-04 07:18:00,
2013-04-04 03:23:00,36.0,16.7,30.27,ENE,72,3.0,3.0,45,0.00,,,0.00,0,Wunderground v.1.15,2013-04-04 07:23:00,
2013-04-04 03:28:00,35.9,16.6,30.27,ENE,75,2.0,4.0,45,0.00,,,0.00,0,Wunderground v.1.15,2013-04-04 07:28:00,
2013-04-04 03:33:00,35.9,17.1,30.27,ENE,75,1.0,3.0,46,0.00,,,0.00,0,Wunderground v.1.15,2013-04-04 07:33:00,
2013-04-04 03:38:00,35.9,16.6,30.26,ENE,75,1.0,3.0,45,0.00,,,0.00,0,Wunderground v.1.15,2013-04-04 07:38:00,
2013-04-04 03:43:00,35.9,16.1,30.26,East,81,1.0,5.0,44,0.00,,,0.00,0,Wunderground v.1.15,2013-04-04 07:43:00,
2013-04-04 03:48:00,36.0,16.2,30.25,ENE,75,2.0,6.0,44,0.00,,,0.00,0,Wunderground v.1.15,2013-04-04 07:48:00,
2013-04-04 03:53:00,36.1,15.7,30.25,East,86,4.0,4.0,43,0.00,,,0.00,0,Wunderground v.1.15,2013-04-04 07:53:00,
2013-04-04 03:58:00,36.1,16.3,30.25,East,80,2.0,2.0,44,0.00,,,0.00,0,Wunderground v.1.15,2013-04-04 07:58:00,
2013-04-04 04:05:00,36.2,16.4,30.25,ENE,72,2.0,4.0,44,0.00,,,0.00,0,Wunderground v.1.15,2013-04-04 08:05:00,
2013-04-04 04:10:00,36.2,16.4,30.25,North,8,3.0,3.0,44,0.00,,,0.00,0,Wunderground v.1.15,2013-04-04 08:10:00,
2013-04-04 04:15:00,36.3,16.4,30.25,NE,54,2.0,5.0,44,0.00,,,0.00,0,Wunderground v.1.15,2013-04-04 08:15:00,
2013-04-04 04:24:00,36.3,16.4,30.25,ENE,76,2.0,5.0,44,0.00,,,0.00,0,Wunderground v.1.15,2013-04-04 08:24:00,
2013-04-04 04:29:00,36.2,16.9,30.25,ENE,73,1.0,5.0,45,0.00,,,0.00,0,Wunderground v.1.15,2013-04-04 08:29:00,
2013-04-04 04:34:00,36.2,16.9,30.25,ENE,73,1.0,3.0,45,0.00,,,0.00,0,Wunderground v.1.15,2013-04-04 08:34:00,
2013-04-04 04:40:00,36.1,16.8,30.25,ENE,72,3.0,4.0,45,0.00,,,0.00,0,Wunderground v.1.15,2013-04-04 08:40:00,
2013-04-04 04:45:00,36.1,16.3,30.25,East,80,1.0,3.0,44,0.00,,,0.00,0,Wunderground v.1.15,2013-04-04 08:45:00,
2013-04-04 04:51:00,36.2,16.9,30.24,NNE,19,2.0,4.0,45,0.00,,,0.00,0,Wunderground v.1.15,2013-04-04 08:51:00,
2013-04-04 04:56:00,36.2,16.4,30.25,ENE,69,2.0,4.0,44,0.00,,,0.00,0,Wunderground v.1.15,2013-04-04 08:56:00,
2013-04-04 05:01:00,36.2,16.4,30.24,NE,49,2.0,4.0,44,0.00,,,0.00,0,Wunderground v.1.15,2013-04-04 09:01:00,
2013-04-04 05:06:00,36.1,15.7,30.24,ENE,72,4.0,6.0,43,0.00,,,0.00,0,Wunderground v.1.15,2013-04-04 09:06:00,
2013-04-04 05:11:00,36.1,15.7,30.24,ENE,78,1.0,5.0,43,0.00,,,0.00,0,Wunderground v.1.15,2013-04-04 09:11:00,
2013-04-04 05:16:00,36.0,15.6,30.24,East,85,2.0,6.0,43,0.00,,,0.00,0,Wunderground v.1.15,2013-04-04 09:16:00,
2013-04-04 05:21:00,35.9,15.0,30.25,SSE,167,1.0,4.0,42,0.00,,,0.00,0,Wunderground v.1.15,2013-04-04 09:21:00,
2013-04-04 05:26:00,35.9,15.0,30.24,ENE,58,3.0,7.0,42,0.00,,,0.00,0,Wunderground v.1.15,2013-04-04 09:26:00,
2013-04-04 05:31:00,35.9,15.0,30.25,ENE,67,0.0,4.0,42,0.00,,,0.00,0,Wunderground v.1.15,2013-04-04 09:31:00,
2013-04-04 05:36:00,35.7,14.8,30.24,ENE,73,2.0,4.0,42,0.00,,,0.00,0,Wunderground v.1.15,2013-04-04 09:36:00,
2013-04-04 05:42:00,35.6,15.3,30.24,ENE,73,2.0,2.0,43,0.00,,,0.00,0,Wunderground v.1.15,2013-04-04 09:42:00,
2013-04-04 05:47:00,35.5,15.7,30.24,ENE,73,1.0,3.0,44,0.00,,,0.00,0,Wunderground v.1.15,2013-04-04 09:47:00,
2013-04-04 05:52:00,35.3,15.0,30.24,ESE,104,0.0,4.0,43,0.00,,,0.00,0,Wunderground v.1.15,2013-04-04 09:52:00,
2013-04-04 05:57:00,35.2,14.9,30.24,ESE,111,1.0,4.0,43,0.00,,,0.00,0,Wunderground v.1.15,2013-04-04 09:57:00,
2013-04-04 06:02:00,35.2,14.9,30.24,ESE,111,1.0,3.0,43,0.00,,,0.00,0,Wunderground v.1.15,2013-04-04 10:02:00,
2013-04-04 06:07:00,35.3,15.0,30.24,East,81,1.0,4.0,43,0.00,,,0.00,0,Wunderground v.1.15,2013-04-04 10:07:00,
2013-04-04 06:12:00,35.3,14.5,30.24,ENE,77,2.0,3.0,42,0.00,,,0.00,0,Wunderground v.1.15,2013-04-04 10:12:00,
2013-04-04 06:17:00,35.3,15.0,30.24,East,99,1.0,3.0,43,0.00,,,0.00,0,Wunderground v.1.15,2013-04-04 10:17:00,
2013-04-04 06:22:00,35.4,15.1,30.23,ENE,76,1.0,4.0,43,0.00,,,0.00,0,Wunderground v.1.15,2013-04-04 10:22:00,
2013-04-04 06:28:00,35.4,15.1,30.23,ENE,58,3.0,4.0,43,0.00,,,0.00,0,Wunderground v.1.15,2013-04-04 10:28:00,
2013-04-04 06:33:00,35.4,16.1,30.23,East,87,2.0,6.0,45,0.00,,,0.00,0,Wunderground v.1.15,2013-04-04 10:33:00,
2013-04-04 06:38:00,35.4,16.1,30.23,East,79,2.0,6.0,45,0.00,,,0.00,0,Wunderground v.1.15,2013-04-04 10:38:00,
2013-04-04 06:43:00,35.3,16.0,30.23,ENE,70,2.0,4.0,45,0.00,,,0.00,0,Wunderground v.1.15,2013-04-04 10:43:00,
2013-04-04 06:48:00,35.2,16.0,30.23,SE,126,0.0,6.0,45,0.00,,,0.00,0,Wunderground v.1.15,2013-04-04 10:48:00,
2013-04-04 06:53:00,35.1,16.4,30.23,SE,127,0.0,4.0,46,0.00,,,0.00,0,Wunderground v.1.15,2013-04-04 10:53:00,
2013-04-04 06:58:00,35.0,16.3,30.23,ENE,77,2.0,4.0,46,0.00,,,0.00,0,Wunderground v.1.15,2013-04-04 10:58:00,
2013-04-04 07:03:00,34.9,16.2,30.22,NNE,31,3.0,5.0,46,0.00,,,0.00,0,Wunderground v.1.15,2013-04-04 11:03:00,
2013-04-04 07:08:00,34.9,15.7,30.23,NE,45,3.0,5.0,45,0.00,,,0.00,0,Wunderground v.1.15,2013-04-04 11:08:00,
2013-04-04 07:13:00,34.9,15.2,30.23,East,82,3.0,5.0,44,0.00,,,0.00,0,Wunderground v.1.15,2013-04-04 11:13:00,
2013-04-04 07:18:00,34.8,15.6,30.23,ENE,68,1.0,5.0,45,0.00,,,0.00,0,Wunderground v.1.15,2013-04-04 11:18:00,
2013-04-04 07:23:00,34.8,16.6,30.23,East,85,2.0,5.0,47,0.00,,,0.00,0,Wunderground v.1.15,2013-04-04 11:23:00,
2013-04-04 07:28:00,34.7,16.5,30.22,East,79,3.0,5.0,47,0.00,,,0.00,0,Wunderground v.1.15,2013-04-04 11:28:00,
2013-04-04 07:33:00,34.7,16.5,30.23,East,82,0.0,3.0,47,0.00,,,0.00,0,Wunderground v.1.15,2013-04-04 11:33:00,
2013-04-04 07:39:00,34.7,16.5,30.23,ENE,68,2.0,2.0,47,0.00,,,0.00,0,Wunderground v.1.15,2013-04-04 11:39:00,
2013-04-04 07:44:00,34.7,16.5,30.22,ENE,60,1.0,4.0,47,0.00,,,0.00,0,Wunderground v.1.15,2013-04-04 11:44:00,
2013-04-04 07:49:00,34.8,16.6,30.22,NE,55,3.0,4.0,47,0.00,,,0.00,0,Wunderground v.1.15,2013-04-04 11:49:00,
2013-04-04 07:54:00,34.9,16.2,30.22,ENE,63,3.0,6.0,46,0.00,,,0.00,0,Wunderground v.1.15,2013-04-04 11:54:00,
2013-04-04 07:59:00,35.1,16.4,30.22,ENE,74,4.0,5.0,46,0.00,,,0.00,0,Wunderground v.1.15,2013-04-04 11:59:00,
2013-04-04 08:05:00,35.2,16.0,30.22,SSE,161,2.0,5.0,45,0.00,,,0.00,0,Wunderground v.1.15,2013-04-04 12:05:00,
2013-04-04 08:10:00,35.3,16.6,30.22,ENE,67,3.0,4.0,46,0.00,,,0.00,0,Wunderground v.1.15,2013-04-04 12:10:00,
2013-04-04 08:15:00,35.4,16.1,30.22,East,85,2.0,6.0,45,0.00,,,0.00,0,Wunderground v.1.15,2013-04-04 12:15:00,
2013-04-04 08:20:00,35.5,17.2,30.22,ENE,67,3.0,5.0,47,0.00,,,0.00,0,Wunderground v.1.15,2013-04-04 12:20:00,
2013-04-04 08:26:00,35.7,16.4,30.22,ENE,72,4.0,7.0,45,0.00,,,0.00,0,Wunderground v.1.15,2013-04-04 12:26:00,
2013-04-04 08:32:00,35.9,17.6,30.22,ENE,61,2.0,4.0,47,0.00,,,0.00,0,Wunderground v.1.15,2013-04-04 12:32:00,
2013-04-04 08:37:00,36.3,17.0,30.22,South,173,2.0,5.0,45,0.00,,,0.00,0,Wunderground v.1.15,2013-04-04 12:37:00,
2013-04-04 08:42:00,36.8,16.9,30.22,East,91,1.0,4.0,44,0.00,,,0.00,0,Wunderground v.1.15,2013-04-04 12:42:00,
2013-04-04 08:47:00,37.3,16.3,30.21,East,84,4.0,4.0,42,0.00,,,0.00,0,Wunderground v.1.15,2013-04-04 12:47:00,
2013-04-04 08:53:00,37.7,17.2,30.21,ESE,112,2.0,4.0,43,0.00,,,0.00,0,Wunderground v.1.15,2013-04-04 12:53:00,
2013-04-04 08:58:00,38.0,17.5,30.21,ENE,69,3.0,5.0,43,0.00,,,0.00,0,Wunderground v.1.15,2013-04-04 12:58:00,
2013-04-04 09:03:00,38.2,18.7,30.21,ENE,73,2.0,3.0,45,0.00,,,0.00,0,Wunderground v.1.15,2013-04-04 13:03:00,
2013-04-04 09:08:00,38.0,18.5,30.21,ENE,61,3.0,5.0,45,0.00,,,0.00,0,Wunderground v.1.15,2013-04-04 13:08:00,
2013-04-04 09:13:00,37.9,17.9,30.21,NE,49,2.0,4.0,44,0.00,,,0.00,0,Wunderground v.1.15,2013-04-04 13:13:00,
2013-04-04 09:18:00,38.1,17.5,30.21,East,80,2.0,6.0,43,0.00,,,0.00,0,Wunderground v.1.15,2013-04-04 13:18:00,
2013-04-04 09:23:00,38.2,17.1,30.21,ENE,74,4.0,5.0,42,0.00,,,0.00,0,Wunderground v.1.15,2013-04-04 13:23:00,
2013-04-04 09:28:00,38.4,16.7,30.21,ENE,72,3.0,4.0,41,0.00,,,0.00,0,Wunderground v.1.15,2013-04-04 13:28:00,
2013-04-04 09:33:00,38.7,17.5,30.20,ENE,75,3.0,4.0,42,0.00,,,0.00,0,Wunderground v.1.15,2013-04-04 13:33:00,
2013-04-04 09:38:00,39.0,17.3,30.20,ENE,75,4.0,4.0,41,0.00,,,0.00,0,Wunderground v.1.15,2013-04-04 13:38:00,
2013-04-04 09:43:00,39.1,17.4,30.20,East,83,4.0,5.0,41,0.00,,,0.00,0,Wunderground v.1.15,2013-04-04 13:43:00,
2013-04-04 09:48:00,39.4,17.6,30.19,East,92,2.0,5.0,41,0.00,,,0.00,0,Wunderground v.1.15,2013-04-04 13:48:00,
2013-04-04 09:53:00,39.7,17.9,30.19,NE,40,1.0,6.0,41,0.00,,,0.00,0,Wunderground v.1.15,2013-04-04 13:53:00,
2013-04-04 09:58:00,39.9,17.5,30.19,ENE,68,1.0,2.0,40,0.00,,,0.00,0,Wunderground v.1.15,2013-04-04 13:58:00,
2013-04-04 10:04:00,40.1,18.3,30.19,ENE,75,1.0,5.0,41,0.00,,,0.00,0,Wunderground v.1.15,2013-04-04 14:04:00,
2013-04-04 10:11:00,40.5,18.0,30.18,ENE,75,4.0,5.0,40,0.00,,,0.00,0,Wunderground v.1.15,2013-04-04 14:11:00,
2013-04-04 10:16:00,40.8,17.1,30.17,North,7,3.0,5.0,38,0.00,,,0.00,0,Wunderground v.1.15,2013-04-04 14:16:00,
2013-04-04 10:21:00,40.9,17.8,30.17,ENE,59,1.0,5.0,39,0.00,,,0.00,0,Wunderground v.1.15,2013-04-04 14:21:00,
2013-04-04 10:27:00,41.2,17.5,30.17,ENE,73,4.0,6.0,38,0.00,,,0.00,0,Wunderground v.1.15,2013-04-04 14:27:00,
2013-04-04 10:32:00,41.7,18.5,30.16,North,9,2.0,4.0,39,0.00,,,0.00,0,Wunderground v.1.15,2013-04-04 14:32:00,
2013-04-04 10:37:00,42.1,17.7,30.16,East,81,2.0,5.0,37,0.00,,,0.00,0,Wunderground v.1.15,2013-04-04 14:37:00,
2013-04-04 10:42:00,42.8,18.3,30.16,SSE,166,3.0,5.0,37,0.00,,,0.00,0,Wunderground v.1.15,2013-04-04 14:42:00,
2013-04-04 10:48:00,43.6,17.7,30.16,ENE,66,0.0,7.0,35,0.00,,,0.00,0,Wunderground v.1.15,2013-04-04 14:48:00,
2013-04-04 10:53:00,44.0,18.1,30.16,SSE,167,3.0,6.0,35,0.00,,,0.00,0,Wunderground v.1.15,2013-04-04 14:53:00,
2013-04-04 10:58:00,44.7,18.0,30.15,ENE,65,4.0,6.0,34,0.00,,,0.00,0,Wunderground v.1.15,2013-04-04 14:58:00,
2013-04-04 11:03:00,44.8,17.4,30.15,ENE,69,5.0,6.0,33,0.00,,,0.00,0,Wunderground v.1.15,2013-04-04 15:03:00,
2013-04-04 11:08:00,44.9,18.2,30.15,East,82,1.0,6.0,34,0.00,,,0.00,0,Wunderground v.1.15,2013-04-04 15:08:00,
2013-04-04 11:13:00,45.7,18.2,30.15,NNE,28,3.0,4.0,33,0.00,,,0.00,0,Wunderground v.1.15,2013-04-04 15:13:00,
2013-04-04 11:18:00,46.1,18.6,30.15,NE,47,2.0,6.0,33,0.00,,,0.00,0,Wunderground v.1.15,2013-04-04 15:18:00,
2013-04-04 11:23:00,46.8,19.9,30.14,NE,40,3.0,7.0,34,0.00,,,0.00,0,Wunderground v.1.15,2013-04-04 15:23:00,
2013-04-04 11:28:00,47.1,18.7,30.14,NE,38,2.0,7.0,32,0.00,,,0.00,0,Wunderground v.1.15,2013-04-04 15:28:00,
2013-04-04 11:33:00,47.5,19.8,30.14,NNE,24,4.0,5.0,33,0.00,,,0.00,0,Wunderground v.1.15,2013-04-04 15:33:00,
2013-04-04 11:38:00,47.8,20.1,30.14,NE,42,3.0,5.0,33,0.00,,,0.00,0,Wunderground v.1.15,2013-04-04 15:38:00,
2013-04-04 11:43:00,48.2,19.7,30.14,North,0,3.0,5.0,32,0.00,,,0.00,0,Wunderground v.1.15,2013-04-04 15:43:00,
2013-04-04 11:48:00,48.2,21.1,30.13,North,0,2.0,5.0,34,0.00,,,0.00,0,Wunderground v.1.15,2013-04-04 15:48:00,
2013-04-04 11:53:00,48.7,20.8,30.13,NNW,335,1.0,3.0,33,0.00,,,0.00,0,Wunderground v.1.15,2013-04-04 15:53:00,
2013-04-04 11:58:00,49.0,21.1,30.13,North,358,3.0,4.0,33,0.00,,,0.00,0,Wunderground v.1.15,2013-04-04 15:58:00,
2013-04-04 12:03:00,49.1,21.2,30.13,NNW,346,2.0,4.0,33,0.00,,,0.00,0,Wunderground v.1.15,2013-04-04 16:03:00,
2013-04-04 12:08:00,49.0,20.4,30.13,NNE,28,2.0,4.0,32,0.00,,,0.00,0,Wunderground v.1.15,2013-04-04 16:08:00,
2013-04-04 12:13:00,49.3,21.4,30.13,NNE,26,2.0,3.0,33,0.00,,,0.00,0,Wunderground v.1.15,2013-04-04 16:13:00,
2013-04-04 12:18:00,49.2,20.6,30.13,NNE,18,1.0,3.0,32,0.00,,,0.00,0,Wunderground v.1.15,2013-04-04 16:18:00,
2013-04-04 12:23:00,49.5,20.1,30.14,NNE,18,1.0,3.0,31,0.00,,,0.00,0,Wunderground v.1.15,2013-04-04 16:23:00,
2013-04-04 12:28:00,49.5,19.3,30.14,NNE,18,2.0,2.0,30,0.00,,,0.00,0,Wunderground v.1.15,2013-04-04 16:28:00,
2013-04-04 12:33:00,50.0,19.7,30.13,NNW,338,3.0,4.0,30,0.00,,,0.00,0,Wunderground v.1.15,2013-04-04 16:33:00,
2013-04-04 12:38:00,50.0,20.5,30.13,North,357,1.0,1.0,31,0.00,,,0.00,0,Wunderground v.1.15,2013-04-04 16:38:00,
2013-04-04 12:43:00,50.2,19.1,30.13,North,357,2.0,3.0,29,0.00,,,0.00,0,Wunderground v.1.15,2013-04-04 16:43:00,
2013-04-04 12:48:00,50.2,19.9,30.13,North,357,1.0,1.0,30,0.00,,,0.00,0,Wunderground v.1.15,2013-04-04 16:48:00,
2013-04-04 12:53:00,50.5,19.4,30.13,North,357,1.0,2.0,29,0.00,,,0.00,0,Wunderground v.1.15,2013-04-04 16:53:00,
2013-04-04 12:59:00,50.9,19.7,30.13,NNW,348,2.0,2.0,29,0.00,,,0.00,0,Wunderground v.1.15,2013-04-04 16:59:00,
2013-04-04 13:04:00,50.8,20.4,30.12,NNW,348,1.0,3.0,30,0.00,,,0.00,0,Wunderground v.1.15,2013-04-04 17:04:00,
2013-04-04 13:09:00,51.2,20.0,30.12,North,0,1.0,1.0,29,0.00,,,0.00,0,Wunderground v.1.15,2013-04-04 17:09:00,
2013-04-04 13:14:00,51.5,20.2,30.12,North,0,2.0,2.0,29,0.00,,,0.00,0,Wunderground v.1.15,2013-04-04 17:14:00,
2013-04-04 13:20:00,51.8,20.5,30.11,North,0,1.0,2.0,29,0.00,,,0.00,0,Wunderground v.1.15,2013-04-04 17:20:00,
2013-04-04 13:25:00,51.9,19.8,30.11,North,0,2.0,3.0,28,0.00,,,0.00,0,Wunderground v.1.15,2013-04-04 17:25:00,
2013-04-04 13:30:00,51.7,19.6,30.11,North,5,0.0,3.0,28,0.00,,,0.00,0,Wunderground v.1.15,2013-04-04 17:30:00,
2013-04-04 13:35:00,51.9,20.6,30.11,North,7,1.0,3.0,29,0.00,,,0.00,0,Wunderground v.1.15,2013-04-04 17:35:00,
2013-04-04 13:41:00,52.2,20.9,30.10,North,7,1.0,2.0,29,0.00,,,0.00,0,Wunderground v.1.15,2013-04-04 17:41:00,
2013-04-04 13:46:00,52.5,21.1,30.10,North,7,2.0,2.0,29,0.00,,,0.00,0,Wunderground v.1.15,2013-04-04 17:46:00,
2013-04-04 13:51:00,52.5,19.4,30.10,North,359,2.0,2.0,27,0.00,,,0.00,0,Wunderground v.1.15,2013-04-04 17:51:00,
2013-04-04 13:56:00,52.5,20.3,30.09,North,358,1.0,2.0,28,0.00,,,0.00,0,Wunderground v.1.15,2013-04-04 17:56:00,
2013-04-04 14:03:00,52.6,20.4,30.09,ENE,61,2.0,2.0,28,0.00,,,0.00,0,Wunderground v.1.15,2013-04-04 18:03:00,
2013-04-04 14:08:00,52.8,21.4,30.09,NE,37,2.0,2.0,29,0.00,,,0.00,0,Wunderground v.1.15,2013-04-04 18:08:00,
2013-04-04 14:13:00,53.1,20.8,30.09,NE,55,1.0,3.0,28,0.00,,,0.00,0,Wunderground v.1.15,2013-04-04 18:13:00,
2013-04-04 14:18:00,53.3,21.0,30.08,NE,55,2.0,3.0,28,0.00,,,0.00,0,Wunderground v.1.15,2013-04-04 18:18:00,
2013-04-04 14:23:00,53.3,21.0,30.08,NE,45,2.0,3.0,28,0.00,,,0.00,0,Wunderground v.1.15,2013-04-04 18:23:00,
2013-04-04 14:28:00,53.4,21.9,30.08,NE,45,2.0,3.0,29,0.00,,,0.00,0,Wunderground v.1.15,2013-04-04 18:28:00,
2013-04-04 14:33:00,53.2,20.0,30.08,North,0,2.0,3.0,27,0.00,,,0.00,0,Wunderground v.1.15,2013-04-04 18:33:00,
2013-04-04 14:38:00,53.2,20.0,30.07,North,0,1.0,3.0,27,0.00,,,0.00,0,Wunderground v.1.15,2013-04-04 18:38:00,
2013-04-04 14:43:00,53.3,21.0,30.07,NNE,20,1.0,3.0,28,0.00,,,0.00,0,Wunderground v.1.15,2013-04-04 18:43:00,
2013-04-04 14:48:00,53.4,21.1,30.07,ENE,69,2.0,4.0,28,0.00,,,0.00,0,Wunderground v.1.15,2013-04-04 18:48:00,
2013-04-04 14:53:00,53.2,20.0,30.06,NE,47,2.0,3.0,27,0.00,,,0.00,0,Wunderground v.1.15,2013-04-04 18:53:00,
2013-04-04 14:58:00,53.2,20.9,30.06,NE,44,2.0,3.0,28,0.00,,,0.00,0,Wunderground v.1.15,2013-04-04 18:58:00,
2013-04-04 15:03:00,53.5,22.0,30.06,NE,44,2.0,2.0,29,0.00,,,0.00,0,Wunderground v.1.15,2013-04-04 19:03:00,
2013-04-04 15:08:00,53.6,21.2,30.05,NE,41,2.0,3.0,28,0.00,,,0.00,0,Wunderground v.1.15,2013-04-04 19:08:00,
2013-04-04 15:13:00,53.7,22.2,30.05,NE,39,1.0,3.0,29,0.00,,,0.00,0,Wunderground v.1.15,2013-04-04 19:13:00,
2013-04-04 15:18:00,53.7,20.5,30.04,North,10,1.0,3.0,27,0.00,,,0.00,0,Wunderground v.1.15,2013-04-04 19:18:00,
2013-04-04 15:23:00,53.8,21.4,30.05,NNE,26,2.0,3.0,28,0.00,,,0.00,0,Wunderground v.1.15,2013-04-04 19:23:00,
2013-04-04 15:28:00,53.9,23.1,30.04,NNE,26,0.0,3.0,30,0.00,,,0.00,0,Wunderground v.1.15,2013-04-04 19:28:00,
2013-04-04 15:33:00,54.2,20.9,30.04,NNE,26,0.0,1.0,27,0.00,,,0.00,0,Wunderground v.1.15,2013-04-04 19:33:00,
2013-04-04 15:38:00,54.4,21.1,30.04,NNE,26,0.0,2.0,27,0.00,,,0.00,0,Wunderground v.1.15,2013-04-04 19:38:00,
2013-04-04 15:43:00,54.6,21.2,30.04,NNE,26,0.0,2.0,27,0.00,,,0.00,0,Wunderground v.1.15,2013-04-04 19:43:00,
2013-04-04 15:48:00,54.8,22.3,30.04,NNE,21,1.0,1.0,28,0.00,,,0.00,0,Wunderground v.1.15,2013-04-04 19:48:00,
2013-04-04 15:53:00,54.9,21.5,30.04,NNE,21,1.0,3.0,27,0.00,,,0.00,0,Wunderground v.1.15,2013-04-04 19:53:00,
2013-04-04 15:58:00,54.9,21.5,30.04,NNE,21,1.0,1.0,27,0.00,,,0.00,0,Wunderground v.1.15,2013-04-04 19:58:00,
2013-04-04 16:03:00,55.0,24.1,30.03,NNE,21,1.0,2.0,30,0.00,,,0.00,0,Wunderground v.1.15,2013-04-04 20:03:00,
2013-04-04 16:08:00,55.0,23.3,30.04,NNE,21,0.0,0.0,29,0.00,,,0.00,0,Wunderground v.1.15,2013-04-04 20:08:00,
2013-04-04 16:13:00,55.2,22.6,30.03,NNE,21,0.0,1.0,28,0.00,,,0.00,0,Wunderground v.1.15,2013-04-04 20:13:00,
2013-04-04 16:18:00,55.4,21.9,30.03,NNE,21,1.0,2.0,27,0.00,,,0.00,0,Wunderground v.1.15,2013-04-04 20:18:00,
2013-04-04 16:23:00,55.2,21.8,30.03,NW,322,2.0,4.0,27,0.00,,,0.00,0,Wunderground v.1.15,2013-04-04 20:23:00,
2013-04-04 16:28:00,55.1,21.7,30.03,NW,322,1.0,2.0,27,0.00,,,0.00,0,Wunderground v.1.15,2013-04-04 20:28:00,
2013-04-04 16:33:00,54.9,22.4,30.03,NW,322,0.0,2.0,28,0.00,,,0.00,0,Wunderground v.1.15,2013-04-04 20:33:00,
2013-04-04 16:38:00,55.1,22.5,30.03,NW,322,0.0,0.0,28,0.00,,,0.00,0,Wunderground v.1.15,2013-04-04 20:38:00,
2013-04-04 16:43:00,55.1,22.5,30.03,NW,322,1.0,2.0,28,0.00,,,0.00,0,Wunderground v.1.15,2013-04-04 20:43:00,
2013-04-04 16:48:00,55.1,25.0,30.03,NW,322,1.0,1.0,31,0.00,,,0.00,0,Wunderground v.1.15,2013-04-04 20:48:00,
2013-04-04 16:53:00,55.1,24.2,30.03,NW,322,1.0,2.0,30,0.00,,,0.00,0,Wunderground v.1.15,2013-04-04 20:53:00,
2013-04-04 16:58:00,55.2,25.8,30.03,NW,322,0.0,0.0,32,0.00,,,0.00,0,Wunderground v.1.15,2013-04-04 20:58:00,
2013-04-04 17:04:00,55.2,25.1,30.02,NW,322,0.0,1.0,31,0.00,,,0.00,0,Wunderground v.1.15,2013-04-04 21:04:00,
2013-04-04 17:10:00,55.3,23.5,30.03,NW,322,0.0,0.0,29,0.00,,,0.00,0,Wunderground v.1.15,2013-04-04 21:10:00,
2013-04-04 17:15:00,55.3,24.4,30.02,NW,322,0.0,2.0,30,0.00,,,0.00,0,Wunderground v.1.15,2013-04-04 21:15:00,
2013-04-04 17:20:00,55.4,21.9,30.02,NW,322,0.0,3.0,27,0.00,,,0.00,0,Wunderground v.1.15,2013-04-04 21:20:00,
2013-04-04 17:25:00,55.4,21.9,30.02,WNW,289,3.0,5.0,27,0.00,,,0.00,0,Wunderground v.1.15,2013-04-04 21:25:00,
2013-04-04 17:30:00,55.1,25.7,30.02,WNW,289,2.0,3.0,32,0.00,,,0.00,0,Wunderground v.1.15,2013-04-04 21:30:00,
2013-04-04 17:35:00,54.8,23.9,30.02,WNW,289,1.0,3.0,30,0.00,,,0.00,0,Wunderground v.1.15,2013-04-04 21:35:00,
2013-04-04 17:40:00,54.9,26.3,30.02,WNW,289,3.0,3.0,33,0.00,,,0.00,0,Wunderground v.1.15,2013-04-04 21:40:00,
2013-04-04 17:47:00,54.6,25.3,30.02,WNW,289,3.0,3.0,32,0.00,,,0.00,0,Wunderground v.1.15,2013-04-04 21:47:00,
2013-04-04 17:52:00,54.5,24.4,30.02,WNW,289,1.0,3.0,31,0.00,,,0.00,0,Wunderground v.1.15,2013-04-04 21:52:00,
2013-04-04 17:57:00,54.4,24.4,30.02,WNW,290,2.0,3.0,31,0.00,,,0.00,0,Wunderground v.1.15,2013-04-04 21:57:00,
2013-04-04 18:02:00,54.3,24.3,30.02,WNW,290,0.0,0.0,31,0.00,,,0.00,0,Wunderground v.1.15,2013-04-04 22:02:00,
2013-04-04 18:07:00,54.1,24.1,30.02,WNW,290,1.0,1.0,31,0.00,,,0.00,0,Wunderground v.1.15,2013-04-04 22:07:00,
2013-04-04 18:12:00,54.0,24.0,30.02,WNW,289,0.0,0.0,31,0.00,,,0.00,0,Wunderground v.1.15,2013-04-04 22:12:00,
2013-04-04 18:18:00,53.9,23.9,30.02,WNW,289,0.0,0.0,31,0.00,,,0.00,0,Wunderground v.1.15,2013-04-04 22:18:00,
2013-04-04 18:23:00,53.9,22.3,30.02,WNW,289,0.0,0.0,29,0.00,,,0.00,0,Wunderground v.1.15,2013-04-04 22:23:00,
2013-04-04 18:28:00,53.9,23.1,30.02,WNW,289,0.0,0.0,30,0.00,,,0.00,0,Wunderground v.1.15,2013-04-04 22:28:00,
2013-04-04 18:33:00,53.8,23.1,30.02,WNW,289,0.0,0.0,30,0.00,,,0.00,0,Wunderground v.1.15,2013-04-04 22:33:00,
2013-04-04 18:38:00,53.7,23.7,30.02,WNW,289,0.0,0.0,31,0.00,,,0.00,0,Wunderground v.1.15,2013-04-04 22:38:00,
2013-04-04 18:44:00,53.5,25.1,30.02,WNW,289,0.0,0.0,33,0.00,,,0.00,0,Wunderground v.1.15,2013-04-04 22:44:00,
2013-04-04 18:49:00,53.5,25.8,30.02,WNW,289,0.0,0.0,34,0.00,,,0.00,0,Wunderground v.1.15,2013-04-04 22:49:00,
2013-04-04 18:54:00,53.4,25.0,30.02,WNW,282,1.0,2.0,33,0.00,,,0.00,0,Wunderground v.1.15,2013-04-04 22:54:00,
2013-04-04 18:59:00,53.4,24.2,30.02,South,173,1.0,4.0,32,0.00,,,0.00,0,Wunderground v.1.15,2013-04-04 22:59:00,
2013-04-04 19:05:00,53.3,24.2,30.02,SSE,162,7.0,8.0,32,0.00,,,0.00,0,Wunderground v.1.15,2013-04-04 23:05:00,
2013-04-04 19:10:00,53.2,24.8,30.02,South,171,0.0,1.0,33,0.00,,,0.00,0,Wunderground v.1.15,2013-04-04 23:10:00,
2013-04-04 19:15:00,53.0,24.6,30.02,South,171,2.0,4.0,33,0.00,,,0.00,0,Wunderground v.1.15,2013-04-04 23:15:00,
2013-04-04 19:20:00,52.8,24.5,30.02,South,170,2.0,4.0,33,0.00,,,0.00,0,Wunderground v.1.15,2013-04-04 23:20:00,
2013-04-04 19:26:00,52.6,25.0,30.02,SSE,167,2.0,4.0,34,0.00,,,0.00,0,Wunderground v.1.15,2013-04-04 23:26:00,
2013-04-04 19:32:00,52.4,26.2,30.02,SSE,163,1.0,3.0,36,0.00,,,0.00,0,Wunderground v.1.15,2013-04-04 23:32:00,
2013-04-04 19:37:00,52.1,27.9,30.02,South,171,1.0,4.0,39,0.00,,,0.00,0,Wunderground v.1.15,2013-04-04 23:37:00,
2013-04-04 19:42:00,51.7,30.5,30.02,South,174,2.0,8.0,44,0.00,,,0.00,0,Wunderground v.1.15,2013-04-04 23:42:00,
2013-04-04 19:48:00,51.3,31.2,30.02,SSE,162,2.0,8.0,46,0.00,,,0.00,0,Wunderground v.1.15,2013-04-04 23:48:00,
2013-04-04 19:53:00,50.9,33.4,30.02,SSE,166,4.0,7.0,51,0.00,,,0.00,0,Wunderground v.1.15,2013-04-04 23:53:00,
2013-04-04 19:58:00,50.4,35.3,30.02,SSE,161,1.0,7.0,56,0.00,,,0.00,0,Wunderground v.1.15,2013-04-04 23:58:00,
2013-04-04 20:03:00,49.9,37.0,30.02,SSE,166,3.0,5.0,61,0.00,,,0.00,0,Wunderground v.1.15,2013-04-05 00:03:00,
2013-04-04 20:08:00,49.4,37.3,30.02,South,169,5.0,5.0,63,0.00,,,0.00,0,Wunderground v.1.15,2013-04-05 00:08:00,
2013-04-04 20:13:00,49.0,38.1,30.02,South,172,2.0,5.0,66,0.00,,,0.00,0,Wunderground v.1.15,2013-04-05 00:13:00,
2013-04-04 20:18:00,48.5,38.0,30.02,South,172,2.0,5.0,67,0.00,,,0.00,0,Wunderground v.1.15,2013-04-05 00:18:00,
2013-04-04 20:23:00,48.1,37.7,30.02,SSE,168,1.0,5.0,67,0.00,,,0.00,0,Wunderground v.1.15,2013-04-05 00:23:00,
2013-04-04 20:29:00,47.7,37.7,30.02,SSE,153,1.0,1.0,68,0.00,,,0.00,0,Wunderground v.1.15,2013-04-05 00:29:00,
2013-04-04 20:35:00,47.2,38.3,30.02,SSE,153,0.0,2.0,71,0.00,,,0.00,0,Wunderground v.1.15,2013-04-05 00:35:00,
2013-04-04 20:41:00,46.9,38.0,30.02,West,259,0.0,2.0,71,0.00,,,0.00,0,Wunderground v.1.15,2013-04-05 00:41:00,
2013-04-04 20:46:00,46.7,38.1,30.03,West,259,0.0,2.0,72,0.00,,,0.00,0,Wunderground v.1.15,2013-04-05 00:46:00,
2013-04-04 20:52:00,46.5,38.3,30.03,South,186,1.0,2.0,73,0.00,,,0.00,0,Wunderground v.1.15,2013-04-05 00:52:00,
2013-04-04 20:57:00,46.4,38.2,30.03,South,186,0.0,2.0,73,0.00,,,0.00,0,Wunderground v.1.15,2013-04-05 00:57:00,
2013-04-04 21:02:00,46.2,38.7,30.03,South,188,2.0,2.0,75,0.00,,,0.00,0,Wunderground v.1.15,2013-04-05 01:02:00,
2013-04-04 21:07:00,46.1,38.6,30.03,South,187,0.0,2.0,75,0.00,,,0.00,0,Wunderground v.1.15,2013-04-05 01:07:00,
2013-04-04 21:12:00,46.0,38.9,30.03,South,188,1.0,2.0,76,0.00,,,0.00,0,Wunderground v.1.15,2013-04-05 01:12:00,
2013-04-04 21:18:00,45.8,38.7,30.02,South,188,0.0,2.0,76,0.00,,,0.00,0,Wunderground v.1.15,2013-04-05 01:18:00,
2013-04-04 21:23:00,45.8,39.0,30.03,South,188,0.0,0.0,77,0.00,,,0.00,0,Wunderground v.1.15,2013-04-05 01:23:00,
2013-04-04 21:28:00,45.7,39.2,30.03,South,187,0.0,0.0,78,0.00,,,0.00,0,Wunderground v.1.15,2013-04-05 01:28:00,
2013-04-04 21:33:00,45.6,39.1,30.03,South,188,1.0,1.0,78,0.00,,,0.00,0,Wunderground v.1.15,2013-04-05 01:33:00,
2013-04-04 21:38:00,45.4,39.3,30.02,South,187,1.0,2.0,79,0.00,,,0.00,0,Wunderground v.1.15,2013-04-05 01:38:00,
2013-04-04 21:43:00,45.4,39.3,30.02,South,187,1.0,2.0,79,0.00,,,0.00,0,Wunderground v.1.15,2013-04-05 01:43:00,
2013-04-04 21:48:00,45.3,39.8,30.02,South,188,1.0,2.0,81,0.00,,,0.00,0,Wunderground v.1.15,2013-04-05 01:48:00,
2013-04-04 21:53:00,44.8,39.6,30.02,WNW,291,1.0,3.0,82,0.00,,,0.00,0,Wunderground v.1.15,2013-04-05 01:53:00,
2013-04-04 21:58:00,44.6,39.8,30.03,WNW,291,0.0,3.0,83,0.00,,,0.00,0,Wunderground v.1.15,2013-04-05 01:58:00,
2013-04-04 22:03:00,44.5,40.0,30.03,WNW,291,2.0,2.0,84,0.00,,,0.00,0,Wunderground v.1.15,2013-04-05 02:03:00,
2013-04-04 22:08:00,44.5,40.0,30.03,WNW,291,0.0,0.0,84,0.00,,,0.00,0,Wunderground v.1.15,2013-04-05 02:08:00,
2013-04-04 22:13:00,44.5,39.7,30.03,WNW,291,0.0,0.0,83,0.00,,,0.00,0,Wunderground v.1.15,2013-04-05 02:13:00,
2013-04-04 22:19:00,44.5,39.7,30.03,WNW,291,0.0,0.0,83,0.00,,,0.00,0,Wunderground v.1.15,2013-04-05 02:19:00,
2013-04-04 22:25:00,44.5,39.7,30.02,SW,223,2.0,2.0,83,0.00,,,0.00,0,Wunderground v.1.15,2013-04-05 02:25:00,
2013-04-04 22:31:00,44.4,39.9,30.02,South,185,0.0,2.0,84,0.00,,,0.00,0,Wunderground v.1.15,2013-04-05 02:31:00,
2013-04-04 22:36:00,44.3,40.1,30.02,West,260,1.0,3.0,85,0.00,,,0.00,0,Wunderground v.1.15,2013-04-05 02:36:00,
2013-04-04 22:41:00,44.2,39.7,30.02,NW,315,1.0,2.0,84,0.00,,,0.00,0,Wunderground v.1.15,2013-04-05 02:41:00,
2013-04-04 22:46:00,44.1,39.9,30.02,NW,315,1.0,2.0,85,0.00,,,0.00,0,Wunderground v.1.15,2013-04-05 02:46:00,
2013-04-04 22:51:00,44.2,40.0,30.02,NW,316,0.0,1.0,85,0.00,,,0.00,0,Wunderground v.1.15,2013-04-05 02:51:00,
2013-04-04 22:56:00,44.2,40.0,30.01,NW,316,0.0,1.0,85,0.00,,,0.00,0,Wunderground v.1.15,2013-04-05 02:56:00,
2013-04-04 23:01:00,44.2,40.0,30.01,NW,316,0.0,0.0,85,0.00,,,0.00,0,Wunderground v.1.15,2013-04-05 03:01:00,
2013-04-04 23:06:00,44.1,39.9,30.01,NW,316,0.0,1.0,85,0.00,,,0.00,0,Wunderground v.1.15,2013-04-05 03:06:00,
2013-04-04 23:11:00,44.0,40.1,30.01,NW,316,0.0,0.0,86,0.00,,,0.00,0,Wunderground v.1.15,2013-04-05 03:11:00,
2013-04-04 23:16:00,43.9,40.3,30.01,NW,316,0.0,1.0,87,0.00,,,0.00,0,Wunderground v.1.15,2013-04-05 03:16:00,
2013-04-04 23:21:00,43.9,40.3,30.01,NW,316,0.0,2.0,87,0.00,,,0.00,0,Wunderground v.1.15,2013-04-05 03:21:00,
2013-04-04 23:26:00,43.9,40.3,30.01,NW,315,0.0,2.0,87,0.00,,,0.00,0,Wunderground v.1.15,2013-04-05 03:26:00,
2013-04-04 23:31:00,43.9,40.3,30.01,NW,316,0.0,0.0,87,0.00,,,0.00,0,Wunderground v.1.15,2013-04-05 03:31:00,
2013-04-04 23:36:00,43.9,40.3,30.01,NW,316,0.0,0.0,87,0.00,,,0.00,0,Wunderground v.1.15,2013-04-05 03:36:00,
2013-04-04 23:41:00,44.0,40.4,30.01,NW,316,0.0,0.0,87,0.00,,,0.00,0,Wunderground v.1.15,2013-04-05 03:41:00,
2013-04-04 23:46:00,44.0,40.1,30.00,NW,316,0.0,0.0,86,0.00,,,0.00,0,Wunderground v.1.15,2013-04-05 03:46:00,
2013-04-04 23:51:00,44.0,40.1,30.00,NW,316,0.0,0.0,86,0.00,,,0.00,0,Wunderground v.1.15,2013-04-05 03:51:00,
2013-04-04 23:56:00,44.0,40.4,30.00,NW,316,0.0,1.0,87,0.00,,,0.00,0,Wunderground v.1.15,2013-04-05 03:56:00,